sat.trackr.live / text

‹ back to catalog

STARLINK-37169

NORAD 68346 · 2026-059AB

PAYLOAD ACTIVE UNKNOWN

§ Identity

Operator
Country
US
Launch date
2026-03-22
Launch site
AFETR
Launch vehicle
Mass (kg)
RCS (m²)

Purposes: comms

External: N2YO · Heavens-Above · Gunter

§ Orbital elements

Epoch: 2026-09-19T02:46:02.666496Z

Period
93.85 min
Inclination
53.1588°
Eccentricity
0.0000757
Mean motion
15.34419904 rev/d
Perigee alt
462.1 km
Apogee alt
463.2 km
Semi-major
6,840.8 km
B*
7.4998e-4
RAAN
162.4484°
Arg perigee
92.0902°
Mean anomaly
268.0187°
Rev number
2,789

§ Raw data

STARLINK-371691 68346U 26059AB  26262.11530864  .00025064  00000+0  74998-3 0  99912 68346  53.1588 162.4484 0000757  92.0902 268.0187 15.34419904 27897

JSON: /api/v1/satellites/68346 · /tle

For live sub-satellite position, see the globe view (requires WebGL).

§ Visibility from observer

Set your observer location to see the next 7 days of passes ≥ 10°. The values pass through the URL so the page stays shareable.

No JS? Fill the form by hand. The geolocation button needs JavaScript.